Regional Weather Roundup
Issued by NWS

Home | Current Version | Previous Version | Graphics & Text | Print | Product List | Glossary Off
Versions: 1 2 3 4 5 6 7 8 9 10 11 12 13 14 15 16 17 18 19 20 21 22 23 24 25 26 27 28 29 30 31 32 33 34 35 36 37 38 39 40 41 42 43 44 45 46 47 48 49 50

524
ASUS43 KMKX 201021
RWRWI

WISCONSIN REGIONAL WEATHER ROUNDUP
NATIONAL WEATHER SERVICE MILWAUKEE/SULLIVAN WI
500 AM CDT WED SEP 20 2017

NOTE: "FAIR" INDICATES FEW OR NO CLOUDS BELOW 12,000 FEET WITH NO
SIGNIFICANT WEATHER AND/OR OBSTRUCTIONS TO VISIBILITY.

WIZ001-002-006>008-014>016-023>028-201100-
NORTHWEST WISCONSIN

CITY           SKY/WX    TMP DP  RH WIND       PRES   REMARKS
SUPERIOR ARPT  LGT RAIN  60  60  99 CALM      29.66R
ASHLAND        TSTM      62  60  93 VRB6G18   29.76R VSB 1
HAYWARD        TSTM      62  61  96 CALM      29.74F FOG
SIREN          LGT RAIN  63  62  96 SE6       29.65F
CUMBERLAND     CLOUDY    64  61  88 SE9       29.68F
RICE LAKE      LGT RAIN  65  63  90 SE9G17    29.70R
CHETEK         LGT RAIN  66  63  89 MISG      29.71R
LADYSMITH      CLOUDY    65  60  81 SE14G22   29.72F
EAU CLAIRE     MOCLDY    67  62  84 S14       29.70S THUNDER
MENOMONIE      TSTM      66  65  95 CALM      29.71R
NEW RICHMOND   CLOUDY    70  63  78 S8        29.66F
OSCEOLA        CLOUDY    69  66  93 SE8       29.65F
$$

WIZ003>005-009-010-017-018-201100-
NORTH CENTRAL WISCONSIN

CITY           SKY/WX    TMP DP  RH WIND       PRES   REMARKS
MANITOWISH WTR CLOUDY    58  58 100 SE9       29.81R
ARBOR VITAE    CLOUDY    59  57  91 SE9       29.83R
WOODRUFF       CLOUDY    59  57  91 SE9       29.83R
RHINELANDER    CLOUDY    57  57 100 SE8       29.86F
EAGLE RIVER    CLOUDY    58  56  94 S10       29.85R
LAND O LAKES   CLOUDY    58  55  90 S8        29.86S
PHILLIPS       CLOUDY    62  60  93 SE10G17   29.77S
TOMAHAWK         N/A     58  55  91 SE3       29.84R
MEDFORD        CLOUDY    61  58  91 SE12G18   29.80R
MERRILL        CLOUDY    61  59  94 SE12      29.84F
$$

WIZ029-030-035-036-043>047-201100-
CENTRAL WISCONSIN

CITY           SKY/WX    TMP DP  RH WIND       PRES   REMARKS
WAUSAU         CLOUDY    60  58  92 SE13      29.82F
MOSINEE        CLOUDY    59  59 100 SE13      29.85F
MARSHFIELD     CLOUDY    62  58  86 SE10      29.81S
STEVENS POINT  CLOUDY    58  58 100 SE8       29.86S FOG
WAUPACA        CLOUDY    62  62  98 SE7       29.87F FOG
WAUTOMA        CLOUDY    60  59  96 SE5       29.87F FOG
WISC RAPIDS    CLOUDY    63  60  90 SE10      29.84F
CAMP DOUGLAS   CLOUDY    62  62 100 SE10      29.80S
$$

WIZ011>013-019>022-031-037>040-048>050-201100-
NORTHEAST WISCONSIN

CITY           SKY/WX    TMP DP  RH WIND       PRES   REMARKS
ANTIGO         CLOUDY    56  56 100 S10G16    29.90R FOG
SHAWANO        CLOUDY    56  55  95 SE6       29.87F
OCONTO         CLOUDY    51  50  97 SE3       29.89F
STURGEON BAY   CLOUDY    64  63  96 S9        29.94F
GREEN BAY      CLOUDY    52  52 100 E5        29.90F
MANITOWOC      MOCLDY    63  63 100 SE7       29.93F FOG
APPLETON       CLEAR     61  61 100 SE9       29.87F
CLINTONVILLE   FOG       54  54 100 CALM      29.88F VSB 1/2
OSHKOSH        CLEAR     58  58 100 S5        29.88F FOG
$$

WIZ032>034-041-042-053>061-201100-
SOUTHWEST WISCONSIN

CITY           SKY/WX    TMP DP  RH WIND       PRES   REMARKS
LA CROSSE      CLOUDY    71  64  78 S16G22    29.71F
SPARTA         CLOUDY    68  62  81 SE9G22    29.77F
VIROQUA        CLOUDY    64  64  98 SE13G18   29.78F
BOSCOBEL       PTCLDY    68  62  81 MISG      29.80F
PRAIRIE DU CHI PTCLDY    67  61  83 SE8       29.77F
PLATTEVILLE    PTCLDY    64  64 100 SE14      29.82F
$$

WIZ056-057-062-063-064-067-068-201100-
SOUTH CENTRAL WISCONSIN

CITY           SKY/WX    TMP DP  RH WIND       PRES   REMARKS
REEDSBURG      CLEAR     63  63 100 SE7       29.83F
BARABOO/DELLS  CLEAR     63  60  90 SE7       29.84F FOG
LONE ROCK      PTCLDY    66  64  93 SE8       29.82F
MINERAL POINT  CLEAR     64  64 100 SE14      29.84F FOG
MADISON        MOCLDY    62  61  96 SE6       29.87F FOG
MIDDLETON      PTCLDY    65  63  94 SE8       29.87F
WATERTOWN      CLOUDY    62  62 100 SE6       29.90F FOG
MONROE         CLEAR     63  61  94 SE12      29.87F FOG
JANESVILLE     CLEAR     63  63 100 SE5       29.89F FOG
$$

WIZ051-052-058>065-066-070>072-201100-
SOUTHEAST WISCONSIN

CITY           SKY/WX    TMP DP  RH WIND       PRES   REMARKS
MILWAUKEE      FOG       60  60 100 SW3       29.92F VSB 1/2
WAUKESHA       FOG       61  61 100 SE3       29.93F VSB 3/4
MILWAUKEE/TIMM FOG       61  57  88 CALM      29.92F VSB 1/4
RACINE         FOG       57  57 100 CALM      29.94S VSB 1/4
BURLINGTON     FOG       61  61 100 CALM      29.92S VSB 1/4
KENOSHA        FOG       60  59  96 CALM      29.93R VSB 1/4
FOND DU LAC    MOCLDY    63  60  90 S7        29.89F FOG
SHEBOYGAN      FOG       53  53 100 CALM      29.92F VSB 1/4
WEST BEND      FOG       57  57 100 CALM      29.91F VSB<1/4
JUNEAU         FOG       61  61  99 SE7       29.91F VSB 1/2
$$

LSZ147-162-201100-
LAKE SUPERIOR

STATION/POSITION TIME  TEMP    WIND        PRES    WAVE
                       AIR SEA DIR/SP/G            HT/PER
                 (UTC) (F)     (DEG/KT/KT) (MB)    (FT/S)
W MID LAKE BUOY  0950   58 54  120/ 14/ 17 1006.9R   3/ 4
DEVILS ISLAND    1000   65     190/  8/ 10 1007.8R
PORT WING        0940   65     140/  5/ 20 1006.8R
SAXON HARBOR     0930   66     170/  6/ 16 1004.7R
$$

LMZ867-665-643>646-201100-
LAKE MICHIGAN

STATION/POSITION TIME  TEMP    WIND        PRES    WAVE
                       AIR SEA DIR/SP/G            HT/PER
                 (UTC) (F)     (DEG/KT/KT) (MB)    (FT/S)
S GREEN BAY BUOY 1000   65 66  150/ 10/ 12 1012.7
N MID LAKE BUOY  0950   64 65  160/ 14/ 16 1014.5F   1/ 3
NORTHPORT PIER   0930   65     150/  7/ 11 1013.9S
KEWAUNEE LAKESHO 0954   62     160/  5/  5 1012.8F
SHEBOYGAN LAKESH 1000   65     150/  6/  7 1012.9F
PORT WASHINGTON  0940   62      CALM  /  1 1014.2S
ATWATER BUOY     0909   66 68  250/  2/  4 1013.8R
MILWAUKEE LAKESH 1000   65      70/  2/  3   N/A
S MID LAKE BUOY  0950   68 68  140/  2/  2 1013.7R   1
KENOSHA   LAKESH 1000   67     160/  4/  4 1013.5
$$

TC  - TEMPERATURE IN CELSIUS
VSB - VISIBILITY IN STATUTE MILES
WCI - WIND CHILL INDEX
HX  - HEAT INDEX





USA.gov is the U.S. government's official web portal to all federal, state and local government web resources and services.